STARLINK-11623, 63276

Orbit data source: Space-Track

STARLINK-11623, 63276 is a payload satellite owned by SpaceX/Seattle (US) in LEO that was launched on Sat, 15 Mar 2025 UTC via an FALCON 9 launch vehicle from the Air Force Eastern Test Range (AFETR). Payload-class satellites include a variety of spacecraft equipped with specific instruments for various scientific and technological missions. These include communications satellites like Starlink; space stations such as the ISS; scientific satellites like the Hubble; Earth observation satellites from companies like Planet Labs, Umbra, and HawkEye 360; GPS; miniature CubeSats for education and research; and military/defense satellites.

Loading next visibility...
Identifier
63276, 2025-053M
Orbit
LEO
Country
Flag of USUS
Related business
Manufacturer
SpaceX/Seattle
Mission
Operational Commercial Communications
Bus & Motor
STARLINK V2MD, Unknown motor
Mass
960 kg wet, ~910 kg dry
Launch date (UTC)
2025-03-15 (1 year ago)
Launch vehicle
FALCON 9
Launch site
Air Force Eastern Test Range (AFETR)
Object type
Payload
Rocket body
Debris
Shape & HBR
Box + 2 Pan, 18.1 m
Radar Cross Section
36.964 m², Large (>1 m²)

Expand to show TLE details & history
Last TLE update: 17 hours ago

TLE from 17 hours ago
0 STARLINK-11623
1 63276U 25053M   26171.17258673  .00205091  00000-0  15636-2 0  9995
2 63276  42.9998 214.8334 0004580 296.7411  63.2988 15.70818042 73775
Epoch: 2026-06-20T04:08Z
TLE epoch observation values (Epoch: 2026-06-20T04:08:31.493Z)
Latitude
Longitude
-115.68884°
Altitude
354.944 km
Speed
7.699 km/s
True Right ascension
14h 19m 20s
True Declination
0° 00' 00"
Sunlit
Object was in full shadow at epoch
Visualization orbit readout
Latitude
Unknown
Longitude
Unknown
Altitude
Unknown
Speed
Unknown
Apparent Right ascension
Unknown
Apparent Declination
Unknown
Sunlit
N/A
Visualization observer readout
Local Sidereal Time
08:32:38
Azimuth
Unknown
Elevation
Unknown
Doppler factor
Unknown
Orbital elements
Apogee altitude
361.625 km
Perigee altitude
355.454 km
Semi-major axis
6,736.676 km
Eccentricity
0.00046
Inclination
42.9998°
RAAN
214.8334°
Arg. of periapsis
296.7411°
True anomaly
63.3457°
Mean anomaly
63.2988°
Eccentric anomaly
63.32225°
Mean motion
3.92532 °/min
Orbital period
91.71 mins
BSTAR
0.0015636
Loading maneuver chart data...
Computing Atmospheric mass density...
Loading historical data...
Loading historical data...
Loading historical data...
Loading historical data...
Loading historical data...
Loading historical data...
Loading historical data...

Documentation

Showing up to 5 results
|